Directory Listing
Index of /dewiktionary/20260301/

Index of /dewiktionary/20260301/


../
dewiktionary-20260301-all-titles-in-ns0.gz         01-Mar-2026 15:13      3M
dewiktionary-20260301-all-titles.gz                01-Mar-2026 15:13      4M
dewiktionary-20260301-babel.sql.gz                 01-Mar-2026 14:46    3705
dewiktionary-20260301-category.sql.gz              01-Mar-2026 14:45    105K
dewiktionary-20260301-categorylinks.sql.gz         01-Mar-2026 14:44     81M
dewiktionary-20260301-change_tag.sql.gz            01-Mar-2026 14:46      7M
dewiktionary-20260301-change_tag_def.sql.gz        01-Mar-2026 14:46    1499
dewiktionary-20260301-externallinks.sql.gz         01-Mar-2026 14:45     17M
dewiktionary-20260301-flaggedpage_config.sql.gz    01-Mar-2026 14:46     811
dewiktionary-20260301-flaggedpages.sql.gz          01-Mar-2026 14:46      7M
dewiktionary-20260301-flaggedrevs.sql.gz           01-Mar-2026 14:46    105M
dewiktionary-20260301-flaggedrevs_promote.sql.gz   01-Mar-2026 14:46    291K
dewiktionary-20260301-flaggedrevs_statistics.sq..> 01-Mar-2026 14:46      3M
dewiktionary-20260301-geo_tags.sql.gz              01-Mar-2026 14:46     884
dewiktionary-20260301-image.sql.gz                 01-Mar-2026 14:44    7321
dewiktionary-20260301-imagelinks.sql.gz            01-Mar-2026 14:45     14M
dewiktionary-20260301-iwlinks.sql.gz               01-Mar-2026 14:46     14M
dewiktionary-20260301-langlinks.sql.gz             01-Mar-2026 14:45     26M
dewiktionary-20260301-linktarget.sql.gz            01-Mar-2026 14:45     32M
dewiktionary-20260301-md5sums.json                 01-Mar-2026 17:33    3571
dewiktionary-20260301-md5sums.txt                  01-Mar-2026 17:33    3336
dewiktionary-20260301-page.sql.gz                  01-Mar-2026 14:45     35M
dewiktionary-20260301-page_props.sql.gz            01-Mar-2026 14:46      2M
dewiktionary-20260301-page_restrictions.sql.gz     01-Mar-2026 14:45     39K
dewiktionary-20260301-pagelinks.sql.gz             01-Mar-2026 14:44     72M
dewiktionary-20260301-pages-articles-multistrea..> 01-Mar-2026 15:00      8M
dewiktionary-20260301-pages-articles-multistrea..> 01-Mar-2026 15:00    295M
dewiktionary-20260301-pages-articles.xml.bz2       01-Mar-2026 14:55    249M
dewiktionary-20260301-pages-logging.xml.gz         01-Mar-2026 15:20    198M
dewiktionary-20260301-pages-meta-current.xml.bz2   01-Mar-2026 15:10    280M
dewiktionary-20260301-pages-meta-current.xml.bz..> 01-Mar-2026 15:03     20M
dewiktionary-20260301-pages-meta-history.xml.7z    01-Mar-2026 17:33      1G
dewiktionary-20260301-pages-meta-history.xml.bz2   01-Mar-2026 17:19      3G
dewiktionary-20260301-protected_titles.sql.gz      01-Mar-2026 14:46    7664
dewiktionary-20260301-redirect.sql.gz              01-Mar-2026 14:46     57K
dewiktionary-20260301-runsettings.txt              01-Mar-2026 13:35      28
dewiktionary-20260301-sha1sums.json                01-Mar-2026 17:33    3916
dewiktionary-20260301-sha1sums.txt                 01-Mar-2026 17:33    3680
dewiktionary-20260301-site_stats.sql.gz            01-Mar-2026 14:44     850
dewiktionary-20260301-siteinfo-namespaces.json.gz  01-Mar-2026 15:13    6795
dewiktionary-20260301-siteinfo2-namespacesv2.js..> 01-Mar-2026 15:13    7033
dewiktionary-20260301-sites.sql.gz                 01-Mar-2026 14:46     23K
dewiktionary-20260301-stub-articles.xml.gz         01-Mar-2026 14:36    110M
dewiktionary-20260301-stub-meta-current.xml.gz     01-Mar-2026 14:36    115M
dewiktionary-20260301-stub-meta-history.xml.gz     01-Mar-2026 14:36    813M
dewiktionary-20260301-templatelinks.sql.gz         01-Mar-2026 14:45    100M
dewiktionary-20260301-user_former_groups.sql.gz    01-Mar-2026 14:45    1213
dewiktionary-20260301-user_groups.sql.gz           01-Mar-2026 14:45    3601
dewiktionary-20260301-wbc_entity_usage.sql.gz      01-Mar-2026 14:46     79K
dumpruninfo.json                                   01-Mar-2026 17:33    2956
dumpruninfo.txt                                    01-Mar-2026 17:33    2546
dumpspecialfiles.json                              01-Mar-2026 17:33     133
dumpstatus.json                                    01-Mar-2026 17:33     13K
md5sums-dewiktionary-20260301-all-titles-in-ns0..> 01-Mar-2026 15:13      77
md5sums-dewiktionary-20260301-all-titles.gz.txt    01-Mar-2026 15:13      70
md5sums-dewiktionary-20260301-babel.sql.gz.txt     01-Mar-2026 14:46      69
md5sums-dewiktionary-20260301-category.sql.gz.txt  01-Mar-2026 14:45      72
md5sums-dewiktionary-20260301-categorylinks.sql..> 01-Mar-2026 14:45      77
md5sums-dewiktionary-20260301-change_tag.sql.gz..> 01-Mar-2026 14:46      74
md5sums-dewiktionary-20260301-change_tag_def.sq..> 01-Mar-2026 14:46      78
md5sums-dewiktionary-20260301-externallinks.sql..> 01-Mar-2026 14:45      77
md5sums-dewiktionary-20260301-flaggedpage_confi..> 01-Mar-2026 14:46      82
md5sums-dewiktionary-20260301-flaggedpages.sql...> 01-Mar-2026 14:46      76
md5sums-dewiktionary-20260301-flaggedrevs.sql.g..> 01-Mar-2026 14:46      75
md5sums-dewiktionary-20260301-flaggedrevs_promo..> 01-Mar-2026 14:46      83
md5sums-dewiktionary-20260301-flaggedrevs_stati..> 01-Mar-2026 14:46      86
md5sums-dewiktionary-20260301-geo_tags.sql.gz.txt  01-Mar-2026 14:46      72
md5sums-dewiktionary-20260301-image.sql.gz.txt     01-Mar-2026 14:44      69
md5sums-dewiktionary-20260301-imagelinks.sql.gz..> 01-Mar-2026 14:45      74
md5sums-dewiktionary-20260301-iwlinks.sql.gz.txt   01-Mar-2026 14:46      71
md5sums-dewiktionary-20260301-langlinks.sql.gz.txt 01-Mar-2026 14:45      73
md5sums-dewiktionary-20260301-linktarget.sql.gz..> 01-Mar-2026 14:45      74
md5sums-dewiktionary-20260301-page.sql.gz.txt      01-Mar-2026 14:45      68
md5sums-dewiktionary-20260301-page_props.sql.gz..> 01-Mar-2026 14:46      74
md5sums-dewiktionary-20260301-page_restrictions..> 01-Mar-2026 14:46      81
md5sums-dewiktionary-20260301-pagelinks.sql.gz.txt 01-Mar-2026 14:44      73
md5sums-dewiktionary-20260301-pages-articles-mu..> 01-Mar-2026 15:00      97
md5sums-dewiktionary-20260301-pages-articles-mu..> 01-Mar-2026 15:00      91
md5sums-dewiktionary-20260301-pages-articles.xm..> 01-Mar-2026 14:55      79
md5sums-dewiktionary-20260301-pages-logging.xml..> 01-Mar-2026 15:20      77
md5sums-dewiktionary-20260301-pages-meta-curren..> 01-Mar-2026 15:10      83
md5sums-dewiktionary-20260301-pages-meta-histor..> 01-Mar-2026 17:33      82
md5sums-dewiktionary-20260301-pages-meta-histor..> 01-Mar-2026 17:19      83
md5sums-dewiktionary-20260301-protected_titles...> 01-Mar-2026 14:46      80
md5sums-dewiktionary-20260301-redirect.sql.gz.txt  01-Mar-2026 14:46      72
md5sums-dewiktionary-20260301-site_stats.sql.gz..> 01-Mar-2026 14:44      74
md5sums-dewiktionary-20260301-siteinfo-namespac..> 01-Mar-2026 15:13      84
md5sums-dewiktionary-20260301-siteinfo2-namespa..> 01-Mar-2026 15:13      87
md5sums-dewiktionary-20260301-sites.sql.gz.txt     01-Mar-2026 14:46      69
md5sums-dewiktionary-20260301-stub-articles.xml..> 01-Mar-2026 14:36      77
md5sums-dewiktionary-20260301-stub-meta-current..> 01-Mar-2026 14:36      81
md5sums-dewiktionary-20260301-stub-meta-history..> 01-Mar-2026 14:36      81
md5sums-dewiktionary-20260301-templatelinks.sql..> 01-Mar-2026 14:45      77
md5sums-dewiktionary-20260301-user_former_group..> 01-Mar-2026 14:45      82
md5sums-dewiktionary-20260301-user_groups.sql.g..> 01-Mar-2026 14:45      75
md5sums-dewiktionary-20260301-wbc_entity_usage...> 01-Mar-2026 14:46      80
report.json                                        01-Mar-2026 17:33    7415
sha1sums-dewiktionary-20260301-all-titles-in-ns..> 01-Mar-2026 15:13      85
sha1sums-dewiktionary-20260301-all-titles.gz.txt   01-Mar-2026 15:13      78
sha1sums-dewiktionary-20260301-babel.sql.gz.txt    01-Mar-2026 14:46      77
sha1sums-dewiktionary-20260301-category.sql.gz.txt 01-Mar-2026 14:45      80
sha1sums-dewiktionary-20260301-categorylinks.sq..> 01-Mar-2026 14:45      85
sha1sums-dewiktionary-20260301-change_tag.sql.g..> 01-Mar-2026 14:46      82
sha1sums-dewiktionary-20260301-change_tag_def.s..> 01-Mar-2026 14:46      86
sha1sums-dewiktionary-20260301-externallinks.sq..> 01-Mar-2026 14:45      85
sha1sums-dewiktionary-20260301-flaggedpage_conf..> 01-Mar-2026 14:46      90
sha1sums-dewiktionary-20260301-flaggedpages.sql..> 01-Mar-2026 14:46      84
sha1sums-dewiktionary-20260301-flaggedrevs.sql...> 01-Mar-2026 14:46      83
sha1sums-dewiktionary-20260301-flaggedrevs_prom..> 01-Mar-2026 14:46      91
sha1sums-dewiktionary-20260301-flaggedrevs_stat..> 01-Mar-2026 14:46      94
sha1sums-dewiktionary-20260301-geo_tags.sql.gz.txt 01-Mar-2026 14:46      80
sha1sums-dewiktionary-20260301-image.sql.gz.txt    01-Mar-2026 14:44      77
sha1sums-dewiktionary-20260301-imagelinks.sql.g..> 01-Mar-2026 14:45      82
sha1sums-dewiktionary-20260301-iwlinks.sql.gz.txt  01-Mar-2026 14:46      79
sha1sums-dewiktionary-20260301-langlinks.sql.gz..> 01-Mar-2026 14:45      81
sha1sums-dewiktionary-20260301-linktarget.sql.g..> 01-Mar-2026 14:45      82
sha1sums-dewiktionary-20260301-page.sql.gz.txt     01-Mar-2026 14:45      76
sha1sums-dewiktionary-20260301-page_props.sql.g..> 01-Mar-2026 14:46      82
sha1sums-dewiktionary-20260301-page_restriction..> 01-Mar-2026 14:46      89
sha1sums-dewiktionary-20260301-pagelinks.sql.gz..> 01-Mar-2026 14:44      81
sha1sums-dewiktionary-20260301-pages-articles-m..> 01-Mar-2026 15:00     105
sha1sums-dewiktionary-20260301-pages-articles-m..> 01-Mar-2026 15:00      99
sha1sums-dewiktionary-20260301-pages-articles.x..> 01-Mar-2026 14:55      87
sha1sums-dewiktionary-20260301-pages-logging.xm..> 01-Mar-2026 15:20      85
sha1sums-dewiktionary-20260301-pages-meta-curre..> 01-Mar-2026 15:10      91
sha1sums-dewiktionary-20260301-pages-meta-histo..> 01-Mar-2026 17:33      90
sha1sums-dewiktionary-20260301-pages-meta-histo..> 01-Mar-2026 17:19      91
sha1sums-dewiktionary-20260301-protected_titles..> 01-Mar-2026 14:46      88
sha1sums-dewiktionary-20260301-redirect.sql.gz.txt 01-Mar-2026 14:46      80
sha1sums-dewiktionary-20260301-site_stats.sql.g..> 01-Mar-2026 14:44      82
sha1sums-dewiktionary-20260301-siteinfo-namespa..> 01-Mar-2026 15:13      92
sha1sums-dewiktionary-20260301-siteinfo2-namesp..> 01-Mar-2026 15:13      95
sha1sums-dewiktionary-20260301-sites.sql.gz.txt    01-Mar-2026 14:46      77
sha1sums-dewiktionary-20260301-stub-articles.xm..> 01-Mar-2026 14:36      85
sha1sums-dewiktionary-20260301-stub-meta-curren..> 01-Mar-2026 14:36      89
sha1sums-dewiktionary-20260301-stub-meta-histor..> 01-Mar-2026 14:36      89
sha1sums-dewiktionary-20260301-templatelinks.sq..> 01-Mar-2026 14:45      85
sha1sums-dewiktionary-20260301-user_former_grou..> 01-Mar-2026 14:45      90
sha1sums-dewiktionary-20260301-user_groups.sql...> 01-Mar-2026 14:45      83
sha1sums-dewiktionary-20260301-wbc_entity_usage..> 01-Mar-2026 14:46      88
status.html                                        01-Mar-2026 17:33     119
tableinfo.json                                     01-Mar-2026 09:18    1669